Flag for U.S.A. Weather past 2 weeks in Wichita, Kansas, U.S.A.

Now
47 °F

Passing clouds.


Feels Like: 39 °F
Forecast: 39 / 69 °F
Wind: 22 mph from South

Location: Wichita Mid-Continent Airport


UV Index: 3 (Moderate)

Visibility: 10 mi


Pressure: 29.85 "Hg

Humidity: 39%

Dew point: 23 °F

Location of WichitaLocation

Historic Weather in Wichita

°F

Wichita temperature yesterday

Maximum temperature yesterday: 63 °F (at 3:53 PM)
Minimum temperature yesterday: 28 °F (at 1:53 AM)
Average temperature yesterday: 46 °F

Past Weeks' High & Low Weather Summary

 TemperatureHumidityPressure
High87 °F (Apr 12, 3:53 PM)96% (Apr 2, 10:53 PM)30.24 "Hg (Apr 2, 10:53 PM)
Low28 °F (Apr 15, 1:53 AM)17% (Apr 15, 3:53 PM)29.38 "Hg (Apr 13, 12:53 PM)
Average54 °F55%29.90 "Hg
* Reported Apr 1 3:53 AM — Apr 16 3:53 AM, Wichita, Weather by CustomWeather, © 2014

Note: Actual official high and low records may vary slightly from our data, if they occured in-between our weather recording intervals... More about our weather records

Advertising

Historic Weather Conditions — Data for Previous 24 hours

 ConditionsComfort  
Time TempWeatherWind HumidityBarometerVisibility
3:53 AM
Apr 16
49 °FPassing clouds.21 mph36%29.87 "Hg10 mi
2:53 AM49 °FPassing clouds.18 mph35%29.89 "Hg10 mi
1:53 AM49 °FPassing clouds.18 mph35%29.90 "Hg10 mi
12:53 AM50 °FPassing clouds.20 mph30%29.91 "Hg10 mi
11:53 PM
Apr 15
51 °FPassing clouds.17 mph28%29.92 "Hg10 mi
10:53 PM53 °FPassing clouds.16 mph23%29.94 "Hg10 mi
9:53 PM53 °FPassing clouds.17 mph24%29.95 "Hg10 mi
8:53 PM54 °FScattered clouds.16 mph23%29.95 "Hg10 mi
7:53 PM58 °FPartly sunny.15 mph19%29.95 "Hg10 mi
6:53 PM60 °FPartly sunny.16 mph19%29.98 "Hg10 mi
5:53 PM62 °FPartly sunny.17 mph17%29.99 "Hg10 mi
4:53 PM62 °FPartly sunny.13 mph19%30.02 "Hg10 mi
3:53 PM63 °FPassing clouds.17 mph17%30.05 "Hg10 mi
2:53 PM61 °FPassing clouds.16 mph20%30.09 "Hg10 mi
1:53 PM58 °FPassing clouds.14 mph23%30.13 "Hg10 mi
12:53 PM56 °FSunny.9 mph27%30.17 "Hg10 mi
11:53 AM52 °FSunny.6 mph34%30.20 "Hg10 mi
10:53 AM48 °FSunny.5 mph37%30.22 "Hg10 mi
9:53 AM44 °FSunny.3 mph47%30.23 "Hg10 mi
8:53 AM38 °FSunny.No wind55%30.24 "Hg10 mi
7:53 AM31 °FClear.No wind69%30.23 "Hg10 mi
6:53 AM28 °FPassing clouds.5 mph66%30.22 "Hg10 mi
5:53 AM30 °FClear.6 mph64%30.22 "Hg10 mi
Weather by CustomWeather, © 2014

See weather overview